| time (UTC) | temp F | wind direction | speed MPH | gust MPH | rain 1hr in | rain 24hr in | rain mn in | humidity % | barometer mb |
| 20260509053327 | 82 | 246 | 5.0 | 11.0 | 0.00 | 0.00 | 0.00 | 85 | 1015.8 |
| 20260509052324 | 82 | 210 | 6.0 | 12.0 | 0.00 | 0.00 | 0.00 | 84 | 1015.9 |
| 20260509051317 | 82 | 259 | 4.0 | 10.0 | 0.00 | 0.00 | 0.00 | 83 | 1016.1 |
| 20260509050348 | 82 | 265 | 5.0 | 11.0 | 0.00 | 0.00 | 0.00 | 82 | 1016.1 |
| 20260509045330 | 82 | 232 | 5.0 | 10.0 | 0.00 | 0.00 | 0.00 | 83 | 1016.2 |
| 20260509044325 | 82 | 267 | 4.0 | 10.0 | 0.00 | 0.00 | 0.00 | 83 | 1016.2 |
| 20260509043321 | 82 | 255 | 4.0 | 9.0 | 0.00 | 0.00 | 0.00 | 84 | 1016.3 |
| 20260509042321 | 82 | 277 | 5.0 | 9.0 | 0.00 | 0.00 | 0.00 | 84 | 1016.3 |
| 20260509041336 | 82 | 243 | 5.0 | 9.0 | 0.00 | 0.00 | 0.00 | 83 | 1016.3 |
| 20260509040343 | 82 | 236 | 5.0 | 8.0 | 0.00 | 0.00 | 0.00 | 82 | 1016.3 |
| 20260509035329 | 82 | 257 | 4.0 | 9.0 | 0.00 | 0.00 | 0.00 | 82 | 1016.4 |
| 20260509034323 | 82 | 226 | 4.0 | 8.0 | 0.00 | 0.00 | 0.00 | 82 | 1016.3 |
| 20260509033317 | 82 | 243 | 5.0 | 10.0 | 0.00 | 0.00 | 0.00 | 82 | 1016.3 |
| 20260509032333 | 83 | 255 | 4.0 | 8.0 | 0.00 | 0.00 | 0.00 | 83 | 1016.2 |
| 20260509031332 | 83 | 260 | 4.0 | 9.0 | 0.00 | 0.00 | 0.00 | 83 | 1016.2 |
| 20260509030339 | 83 | 244 | 4.0 | 8.0 | 0.00 | 0.00 | 0.00 | 82 | 1016.2 |
| 20260509025322 | 83 | 256 | 3.0 | 8.0 | 0.00 | 0.00 | 0.00 | 81 | 1016.1 |
| 20260509024321 | 83 | 218 | 2.0 | 6.0 | 0.00 | 0.00 | 0.00 | 81 | 1016.0 |
| 20260509023317 | 83 | 244 | 3.0 | 7.0 | 0.00 | 0.00 | 0.00 | 81 | 1016.0 |
| 20260509022334 | 83 | 268 | 5.0 | 8.0 | 0.00 | 0.00 | 0.00 | 80 | 1015.9 |
| 20260509021349 | 83 | 269 | 2.0 | 6.0 | 0.00 | 0.00 | 0.00 | 80 | 1015.9 |
| 20260509020339 | 83 | 224 | 3.0 | 6.0 | 0.00 | 0.00 | 0.00 | 80 | 1015.8 |
| 20260509015321 | 83 | 250 | 2.0 | 6.0 | 0.00 | 0.00 | 0.00 | 80 | 1015.7 |
| 20260509014316 | 83 | 218 | 1.0 | 6.0 | 0.00 | 0.00 | 0.00 | 80 | 1015.4 |
| 20260509013352 | 83 | 239 | 3.0 | 6.0 | 0.00 | 0.00 | 0.00 | 80 | 1015.4 |
| 20260509012331 | 83 | 240 | 3.0 | 6.0 | 0.00 | 0.00 | 0.00 | 80 | 1015.3 |
| 20260509011326 | 83 | 250 | 3.0 | 7.0 | 0.00 | 0.00 | 0.00 | 81 | 1015.2 |
| 20260509010333 | 83 | 259 | 3.0 | 7.0 | 0.00 | 0.00 | 0.00 | 80 | 1015.0 |
| 20260509005320 | 83 | 226 | 3.0 | 7.0 | 0.00 | 0.00 | 0.00 | 78 | 1015.0 |
| 20260509004335 | 83 | 226 | 4.0 | 6.0 | 0.00 | 0.00 | 0.00 | 79 | 1014.8 |
| 20260509003331 | 83 | 254 | 4.0 | 7.0 | 0.00 | 0.00 | 0.00 | 79 | 1014.7 |
| 20260509002328 | 83 | 257 | 2.0 | 7.0 | 0.00 | 0.00 | 0.00 | 78 | 1014.7 |
| 20260509001327 | 83 | 242 | 3.0 | 6.0 | 0.00 | 0.00 | 0.00 | 77 | 1014.7 |
| 20260509000355 | 84 | 290 | 2.0 | 4.0 | 0.00 | 0.00 | 0.00 | 77 | 1014.7 |
| 20260508235355 | 84 | 235 | 2.0 | 7.0 | 0.00 | 0.00 | 0.00 | 76 | 1014.5 |
| 20260508234329 | 85 | 267 | 3.0 | 6.0 | 0.00 | 0.00 | 0.00 | 75 | 1014.5 |
| 20260508233328 | 86 | 245 | 3.0 | 6.0 | 0.00 | 0.00 | 0.00 | 73 | 1014.3 |
| 20260508232325 | 86 | 276 | 0.0 | 4.0 | 0.00 | 0.00 | 0.00 | 72 | 1014.2 |
| 20260508231321 | 86 | 285 | 1.0 | 6.0 | 0.00 | 0.00 | 0.00 | 73 | 1014.2 |
| 20260508230331 | 87 | 265 | 0.0 | 4.0 | 0.00 | 0.00 | 0.00 | 72 | 1014.1 |
| 20260508225334 | 87 | 346 | 3.0 | 7.0 | 0.00 | 0.00 | 0.00 | 71 | 1014.2 |
| 20260508224329 | 87 | 352 | 0.0 | 4.0 | 0.00 | 0.00 | 0.00 | 72 | 1014.3 |
| 20260508223328 | 87 | 306 | 2.0 | 5.0 | 0.00 | 0.00 | 0.00 | 71 | 1014.3 |
| 20260508222325 | 88 | 288 | 2.0 | 5.0 | 0.00 | 0.00 | 0.00 | 72 | 1014.4 |
| 20260508221341 | 87 | 268 | 2.0 | 7.0 | 0.00 | 0.00 | 0.00 | 73 | 1014.4 |
| 20260508220406 | 87 | 307 | 3.0 | 6.0 | 0.00 | 0.00 | 0.00 | 71 | 1014.3 |
| 20260508215331 | 87 | 262 | 5.0 | 8.0 | 0.00 | 0.00 | 0.00 | 71 | 1014.4 |
| 20260508214326 | 87 | 293 | 4.0 | 8.0 | 0.00 | 0.00 | 0.00 | 73 | 1014.4 |
| 20260508213321 | 87 | 252 | 5.0 | 8.0 | 0.00 | 0.00 | 0.00 | 73 | 1014.5 |
| 20260508212316 | 87 | 337 | 6.0 | 9.0 | 0.00 | 0.00 | 0.00 | 72 | 1014.6 |
| 20260508211335 | 87 | 260 | 5.0 | 9.0 | 0.00 | 0.00 | 0.00 | 71 | 1014.8 |
| 20260508210343 | 87 | 328 | 6.0 | 11.0 | 0.00 | 0.00 | 0.00 | 72 | 1014.9 |
| 20260508205344 | 87 | 287 | 3.0 | 9.0 | 0.00 | 0.00 | 0.00 | 71 | 1015.1 |
| 20260508204318 | 87 | 259 | 3.0 | 9.0 | 0.00 | 0.00 | 0.00 | 71 | 1015.1 |
| 20260508203317 | 87 | 249 | 5.0 | 9.0 | 0.00 | 0.00 | 0.00 | 72 | 1015.2 |
| 20260508202333 | 87 | 253 | 5.0 | 10.0 | 0.00 | 0.00 | 0.00 | 71 | 1015.4 |
| 20260508201328 | 87 | 262 | 5.0 | 11.0 | 0.00 | 0.00 | 0.00 | 70 | 1015.5 |
| 20260508200339 | 87 | 246 | 6.0 | 12.0 | 0.00 | 0.00 | 0.00 | 71 | 1015.5 |
| 20260508195322 | 88 | 262 | 5.0 | 12.0 | 0.00 | 0.00 | 0.00 | 72 | 1015.5 |
| 20260508194335 | 86 | 274 | 5.0 | 12.0 | 0.00 | 0.00 | 0.00 | 73 | 1015.7 |
| 20260508193330 | 86 | 229 | 9.0 | 12.0 | 0.00 | 0.00 | 0.00 | 71 | 1015.7 |
| 20260508192330 | 87 | 248 | 8.0 | 14.0 | 0.00 | 0.00 | 0.00 | 70 | 1015.9 |
| 20260508191325 | 87 | 248 | 7.0 | 12.0 | 0.00 | 0.00 | 0.00 | 71 | 1015.9 |
| 20260508190352 | 87 | 226 | 6.0 | 11.0 | 0.00 | 0.00 | 0.00 | 69 | 1016.0 |
| 20260508185354 | 87 | 271 | 6.0 | 12.0 | 0.00 | 0.00 | 0.00 | 70 | 1016.3 |
| 20260508184332 | 87 | 265 | 6.0 | 12.0 | 0.00 | 0.00 | 0.00 | 71 | 1016.3 |
| 20260508183328 | 87 | 251 | 6.0 | 11.0 | 0.00 | 0.00 | 0.00 | 70 | 1016.4 |
| 20260508182325 | 87 | 288 | 6.0 | 10.0 | 0.00 | 0.00 | 0.00 | 70 | 1016.4 |
| 20260508181324 | 87 | 259 | 3.0 | 10.0 | 0.00 | 0.00 | 0.00 | 67 | 1016.6 |
| 20260508180331 | 87 | 257 | 4.0 | 9.0 | 0.00 | 0.00 | 0.00 | 67 | 1016.7 |
| 20260508175333 | 87 | 210 | 6.0 | 10.0 | 0.00 | 0.00 | 0.00 | 67 | 1016.7 |
| 20260508174329 | 88 | 237 | 3.0 | 10.0 | 0.00 | 0.00 | 0.00 | 67 | 1016.9 |
| 20260508173328 | 87 | 234 | 4.0 | 12.0 | 0.00 | 0.00 | 0.00 | 69 | 1017.1 |
| 20260508172324 | 87 | 180 | 5.0 | 11.0 | 0.00 | 0.00 | 0.00 | 69 | 1017.2 |
| 20260508171319 | 86 | 204 | 6.0 | 10.0 | 0.00 | 0.00 | 0.00 | 69 | 1017.3 |
| 20260508170349 | 86 | 196 | 6.0 | 11.0 | 0.00 | 0.00 | 0.00 | 69 | 1017.3 |
| 20260508165351 | 86 | 177 | 6.0 | 11.0 | 0.00 | 0.00 | 0.00 | 70 | 1017.5 |
| 20260508164324 | 86 | 168 | 6.0 | 11.0 | 0.00 | 0.00 | 0.00 | 70 | 1017.6 |
| 20260508163320 | 85 | 166 | 5.0 | 11.0 | 0.00 | 0.00 | 0.00 | 72 | 1017.7 |
| 20260508162340 | 85 | 201 | 6.0 | 12.0 | 0.00 | 0.00 | 0.00 | 72 | 1017.8 |
| 20260508161334 | 85 | 195 | 5.0 | 11.0 | 0.00 | 0.00 | 0.00 | 72 | 1017.9 |
| 20260508160342 | 85 | 178 | 6.0 | 15.0 | 0.00 | 0.00 | 0.00 | 72 | 1018.2 |
| 20260508155324 | 85 | 182 | 7.0 | 12.0 | 0.00 | 0.00 | 0.00 | 73 | 1018.3 |
| 20260508154344 | 84 | 40 | 8.0 | 14.0 | 0.00 | 0.00 | 0.00 | 75 | 1018.4 |
| 20260508153318 | 85 | 197 | 5.0 | 10.0 | 0.00 | 0.00 | 0.00 | 76 | 1018.4 |
| 20260508152335 | 84 | 206 | 5.0 | 11.0 | 0.00 | 0.00 | 0.00 | 76 | 1018.5 |
| 20260508151334 | 85 | 219 | 5.0 | 12.0 | 0.00 | 0.00 | 0.00 | 76 | 1018.5 |
| 20260508150401 | 84 | 203 | 6.0 | 12.0 | 0.00 | 0.00 | 0.00 | 76 | 1018.6 |
| 20260508145322 | 84 | 178 | 5.0 | 11.0 | 0.00 | 0.00 | 0.00 | 78 | 1018.6 |
| 20260508144317 | 84 | 181 | 7.0 | 13.0 | 0.00 | 0.00 | 0.00 | 77 | 1018.5 |
| 20260508143336 | 84 | 155 | 6.0 | 14.0 | 0.00 | 0.00 | 0.00 | 80 | 1018.4 |
| 20260508142332 | 84 | 205 | 5.0 | 11.0 | 0.00 | 0.00 | 0.00 | 81 | 1018.1 |
| 20260508141327 | 84 | 172 | 8.0 | 13.0 | 0.00 | 0.00 | 0.00 | 81 | 1018.1 |
| 20260508140338 | 84 | 128 | 6.0 | 12.0 | 0.00 | 0.00 | 0.00 | 80 | 1018.0 |
| 20260508135320 | 85 | 180 | 5.0 | 12.0 | 0.00 | 0.00 | 0.00 | 80 | 1017.8 |
| 20260508134335 | 85 | 124 | 4.0 | 10.0 | 0.00 | 0.00 | 0.00 | 80 | 1017.7 |
| 20260508133351 | 84 | 218 | 4.0 | 9.0 | 0.00 | 0.00 | 0.00 | 81 | 1017.7 |
| 20260508132331 | 84 | 192 | 4.0 | 9.0 | 0.00 | 0.00 | 0.00 | 82 | 1017.7 |
| 20260508131346 | 84 | 130 | 5.0 | 10.0 | 0.00 | 0.00 | 0.00 | 82 | 1017.7 |
| 20260508130331 | 84 | 161 | 4.0 | 9.0 | 0.00 | 0.00 | 0.00 | 82 | 1017.7 |
| 20260508125334 | 84 | 108 | 4.0 | 10.0 | 0.00 | 0.00 | 0.00 | 83 | 1017.6 |
| 20260508124353 | 84 | 174 | 4.0 | 10.0 | 0.00 | 0.00 | 0.00 | 83 | 1017.5 |
| 20260508123328 | 84 | 159 | 3.0 | 6.0 | 0.00 | 0.00 | 0.00 | 83 | 1017.4 |
| 20260508122324 | 84 | 194 | 0.0 | 2.0 | 0.00 | 0.00 | 0.00 | 83 | 1017.4 |
| 20260508121323 | 84 | 205 | 0.0 | 4.0 | 0.00 | 0.00 | 0.00 | 83 | 1017.3 |
| 20260508120330 | 85 | 232 | 0.0 | 1.0 | 0.00 | 0.00 | 0.00 | 82 | 1017.2 |
| 20260508115332 | 84 | 236 | 0.0 | 0.0 | 0.00 | 0.00 | 0.00 | 85 | 1017.1 |
| 20260508114327 | 82 | 214 | 0.0 | 0.0 | 0.00 | 0.00 | 0.00 | 87 | 1017.0 |
| 20260508113326 | 82 | 250 | 0.0 | 0.0 | 0.00 | 0.00 | 0.00 | 87 | 1017.0 |
| 20260508112323 | 81 | 250 | 0.0 | 0.0 | 0.00 | 0.00 | 0.00 | 89 | 1016.8 |
| 20260508111318 | 81 | 250 | 0.0 | 0.0 | 0.00 | 0.00 | 0.00 | 90 | 1016.7 |
| 20260508110349 | 80 | 250 | 0.0 | 0.0 | 0.00 | 0.00 | 0.00 | 90 | 1016.6 |
| 20260508105331 | 80 | 254 | 0.0 | 0.0 | 0.00 | 0.00 | 0.00 | 89 | 1016.5 |
| 20260508104325 | 80 | 254 | 0.0 | 0.0 | 0.00 | 0.00 | 0.00 | 89 | 1016.4 |
| 20260508103321 | 80 | 254 | 0.0 | 0.0 | 0.00 | 0.00 | 0.00 | 89 | 1016.1 |
| 20260508102321 | 81 | 238 | 0.0 | 0.0 | 0.00 | 0.00 | 0.00 | 89 | 1016.1 |
| 20260508101316 | 81 | 247 | 0.0 | 3.0 | 0.00 | 0.00 | 0.00 | 89 | 1015.9 |
| 20260508100342 | 80 | 253 | 0.0 | 1.0 | 0.00 | 0.00 | 0.00 | 90 | 1015.8 |
| 20260508095330 | 80 | 268 | 0.0 | 0.0 | 0.00 | 0.00 | 0.00 | 90 | 1015.9 |
| 20260508094324 | 80 | 315 | 0.0 | 0.0 | 0.00 | 0.00 | 0.00 | 91 | 1015.9 |
| 20260508093320 | 80 | 278 | 0.0 | 2.0 | 0.00 | 0.00 | 0.00 | 90 | 1015.9 |
| 20260508092320 | 80 | 280 | 0.0 | 0.0 | 0.00 | 0.00 | 0.00 | 90 | 1016.0 |
| 20260508091335 | 81 | 280 | 0.0 | 0.0 | 0.00 | 0.00 | 0.00 | 90 | 1016.0 |
| 20260508090340 | 81 | 272 | 1.0 | 2.0 | 0.00 | 0.00 | 0.00 | 91 | 1016.0 |
| 20260508085323 | 81 | 286 | 2.0 | 7.0 | 0.00 | 0.00 | 0.00 | 91 | 1015.9 |
| 20260508084322 | 80 | 272 | 1.0 | 4.0 | 0.00 | 0.00 | 0.00 | 91 | 1015.8 |
| 20260508083317 | 81 | 330 | 2.0 | 5.0 | 0.00 | 0.00 | 0.00 | 91 | 1015.8 |
| 20260508082334 | 81 | 270 | 1.0 | 3.0 | 0.00 | 0.00 | 0.00 | 91 | 1015.8 |
| 20260508081350 | 81 | 260 | 0.0 | 3.0 | 0.00 | 0.00 | 0.00 | 91 | 1015.8 |
| 20260508080359 | 81 | 310 | 1.0 | 3.0 | 0.00 | 0.00 | 0.00 | 91 | 1015.9 |
| 20260508075320 | 81 | 307 | 1.0 | 5.0 | 0.00 | 0.00 | 0.00 | 91 | 1015.8 |
| 20260508074336 | 81 | 290 | 1.0 | 3.0 | 0.00 | 0.00 | 0.00 | 91 | 1016.0 |
| 20260508073329 | 81 | 275 | 1.0 | 4.0 | 0.00 | 0.00 | 0.00 | 91 | 1015.9 |
| 20260508072330 | 81 | 280 | 1.0 | 5.0 | 0.00 | 0.00 | 0.00 | 90 | 1015.9 |
| 20260508071346 | 81 | 300 | 2.0 | 3.0 | 0.00 | 0.00 | 0.00 | 90 | 1016.0 |
| 20260508070332 | 81 | 290 | 2.0 | 4.0 | 0.00 | 0.00 | 0.00 | 89 | 1016.1 |
| 20260508065318 | 81 | 292 | 1.0 | 3.0 | 0.00 | 0.00 | 0.00 | 88 | 1016.1 |
| 20260508064334 | 81 | 305 | 0.0 | 1.0 | 0.00 | 0.00 | 0.00 | 84 | 1016.2 |
| 20260508063329 | 81 | 132 | 0.0 | 0.0 | 0.00 | 0.00 | 0.00 | 83 | 1016.2 |
| 20260508062325 | 81 | 132 | 0.0 | 1.0 | 0.00 | 0.00 | 0.00 | 83 | 1016.4 |
| 20260508061324 | 81 | 168 | 0.0 | 0.0 | 0.00 | 0.00 | 0.00 | 84 | 1016.6 |
| 20260508060330 | 81 | 156 | 0.0 | 0.0 | 0.00 | 0.00 | 0.00 | 83 | 1016.6 |
| 20260508055332 | 81 | 156 | 0.0 | 0.0 | 0.00 | 0.00 | 0.00 | 83 | 1016.6 |
| 20260508054333 | 81 | 156 | 0.0 | 0.0 | 0.00 | 0.00 | 0.00 | 83 | 1016.6 |